Date String (YYYY-MM-DD hh:mm:ss) UTC,Instrument flags,Ambient pressure (hPa),Sample flow (lpm),Bypass flow (lpm),Sample temperature (°C),Ambient temperature (°C),ASC tube jacket temperature (°C),LED temperature (°C),Box temperature (°C),Sample RH (%),Span deviation,Mass concentration (μg/m³),Mass concentration (μg/m³),Mass concentration (μg/m³)
DateTimeUTC,F1_M11,P_M11,Q1_M11,Q2_M11,T1_M11,T2_M11,T3_M11,T4_M11,T5_M11,U1_M11,ZSPAN_M11,X2_M11,X0_M11,X1_M11
2022-05-20 01:00:00,,0807.5,4.99,0.00,29.4,28.5,00.0,38.1,31.4,08.8,0000.0,0003.75,0014.48,0001.96
2022-05-20 01:01:00,,0807.4,4.99,0.00,29.4,28.2,00.0,38.1,31.3,08.6,0000.0,0003.77,0014.14,0001.94
2022-05-20 01:02:00,,0807.4,5.01,0.00,29.3,27.3,00.0,38.1,31.0,08.7,0000.0,0003.78,0012.99,0001.93
2022-05-20 01:03:00,,0807.4,5.00,0.00,29.3,26.9,00.0,38.0,30.9,08.8,0000.0,0003.81,0012.13,0001.95
2022-05-20 01:04:00,,0807.4,5.00,0.00,29.2,26.9,00.0,38.0,30.9,08.8,0000.0,0003.85,0012.07,0001.98
2022-05-20 01:05:00,,0807.6,5.00,0.00,29.2,27.1,00.0,38.0,30.9,08.8,0000.0,0003.82,0011.87,0002.00
2022-05-20 01:06:00,,0807.7,4.99,0.00,29.2,27.2,00.0,38.0,31.0,08.9,0000.0,0003.82,0011.99,0002.02
2022-05-20 01:07:00,,0807.6,5.00,0.00,29.2,27.4,00.0,38.0,31.0,08.9,0000.0,0003.81,0011.17,0002.02
2022-05-20 01:08:00,,0807.6,5.00,0.00,29.2,27.6,00.0,38.0,31.1,08.8,0000.0,0003.76,0010.29,0002.03
2022-05-20 01:09:00,,0807.5,5.00,0.00,29.2,27.8,00.0,38.0,31.1,08.9,0000.0,0003.73,0009.61,0002.03
2022-05-20 01:10:00,,0807.6,5.00,0.00,29.2,28.0,00.0,38.1,31.2,08.8,0000.0,0003.86,0009.85,0002.06
2022-05-20 01:11:00,,0807.6,4.99,0.00,29.3,28.2,00.0,38.1,31.2,08.7,0000.0,0003.93,0009.94,0002.08
2022-05-20 01:12:00,,0807.5,5.00,0.00,29.3,28.3,00.0,38.1,31.3,08.8,0000.0,0003.96,0010.05,0002.09
2022-05-20 01:13:00,,0807.4,5.01,0.00,29.4,28.4,00.0,38.1,31.3,08.8,0000.0,0003.92,0010.30,0002.09
2022-05-20 01:14:00,,0807.5,5.00,0.00,29.4,28.3,00.0,38.1,31.3,08.6,0000.0,0003.88,0010.19,0002.07
2022-05-20 01:15:00,,0807.4,4.99,0.00,29.3,27.4,00.0,38.1,31.1,08.6,0000.0,0003.86,0010.23,0002.07
2022-05-20 01:16:00,,0807.5,5.01,0.00,29.2,26.7,00.0,38.0,30.9,08.7,0000.0,0003.89,0010.34,0002.05
2022-05-20 01:17:00,,0807.6,4.98,0.00,29.2,26.6,00.0,38.0,30.8,08.8,0000.0,0003.88,0010.29,0002.06
2022-05-20 01:18:00,,0807.6,5.01,0.00,29.1,26.8,00.0,38.0,30.8,08.8,0000.0,0003.91,0011.39,0002.08
2022-05-20 01:19:00,,0807.6,5.01,0.00,29.1,27.0,00.0,38.0,30.9,08.9,0000.0,0003.91,0012.52,0002.08
2022-05-20 01:20:00,,0807.7,5.00,0.00,29.1,27.2,00.0,38.0,30.9,08.8,0000.0,0003.96,0013.27,0002.07
2022-05-20 01:21:00,,0807.7,4.99,0.00,29.1,27.4,00.0,38.0,31.0,08.8,0000.0,0003.86,0012.99,0002.06
2022-05-20 01:22:00,,0807.8,5.01,0.00,29.1,27.6,00.0,38.0,31.0,08.9,0000.0,0003.80,0013.04,0002.04
2022-05-20 01:23:00,,0807.7,5.00,0.00,29.2,27.8,00.0,38.0,31.1,08.8,0000.0,0003.70,0012.94,0002.04
2022-05-20 01:24:00,,0807.7,4.98,0.00,29.2,28.0,00.0,38.0,31.1,08.8,0000.0,0003.72,0012.88,0002.05
2022-05-20 01:25:00,,0807.6,5.01,0.00,29.2,28.1,00.0,38.0,31.2,08.8,0000.0,0003.70,0013.23,0002.04
2022-05-20 01:26:00,,0807.8,5.00,0.00,29.3,28.3,00.0,38.1,31.2,08.7,0000.0,0003.68,0013.25,0002.02
2022-05-20 01:27:00,,0807.9,4.99,0.00,29.3,28.4,00.0,38.1,31.3,08.8,0000.0,0003.62,0013.08,0002.04
2022-05-20 01:28:00,,0807.8,5.01,0.00,29.4,28.5,00.0,38.1,31.3,08.8,0000.0,0003.68,0013.58,0002.04
2022-05-20 01:29:00,,0807.8,4.99,0.00,29.3,27.9,00.0,38.1,31.2,08.8,0000.0,0003.73,0012.85,0002.03
2022-05-20 01:30:00,,0807.9,5.00,0.00,29.2,26.9,00.0,38.0,30.9,08.7,0000.0,0003.77,0011.78,0002.02
2022-05-20 01:31:00,,0807.8,5.01,0.00,29.2,26.6,00.0,38.0,30.8,08.8,0000.0,0003.66,0011.08,0002.01
2022-05-20 01:32:00,,0808.0,5.00,0.00,29.1,26.7,00.0,38.0,30.8,09.0,0000.0,0003.65,0011.57,0002.00
2022-05-20 01:33:00,,0808.0,4.99,0.00,29.1,26.9,00.0,38.0,30.8,08.9,0000.0,0003.66,0011.76,0002.00
2022-05-20 01:34:00,,0807.9,5.00,0.00,29.1,27.1,00.0,38.0,30.9,08.9,0000.0,0003.68,0011.84,0001.98
2022-05-20 01:35:00,,0807.8,5.00,0.00,29.1,27.3,00.0,37.9,30.9,08.8,0000.0,0003.66,0012.15,0001.96
2022-05-20 01:36:00,,0807.9,5.01,0.00,29.1,27.5,00.0,38.0,31.0,08.7,0000.0,0003.71,0012.30,0001.96
2022-05-20 01:37:00,,0807.9,5.01,0.00,29.1,27.7,00.0,38.0,31.0,08.7,0000.0,0003.77,0012.90,0001.98
2022-05-20 01:38:00,,0808.0,4.99,0.00,29.1,27.9,00.0,38.0,31.1,08.7,0000.0,0003.81,0013.01,0001.97
2022-05-20 01:39:00,,0808.1,5.01,0.00,29.2,28.0,00.0,38.0,31.1,08.8,0000.0,0003.83,0012.86,0001.96
2022-05-20 01:40:00,,0808.1,5.01,0.00,29.2,28.2,00.0,38.0,31.2,08.7,0000.0,0003.82,0012.70,0001.95
2022-05-20 01:41:00,,0808.2,5.00,0.00,29.3,28.3,00.0,38.0,31.2,08.7,0000.0,0003.76,0012.57,0001.96
2022-05-20 01:42:00,,0808.2,5.00,0.00,29.3,28.4,00.0,38.1,31.3,08.7,0000.0,0003.82,0012.45,0001.98
2022-05-20 01:43:00,,0808.3,4.99,0.00,29.3,28.5,00.0,38.1,31.3,08.7,0000.0,0003.87,0012.82,0001.99
2022-05-20 01:44:00,,0808.3,5.00,0.00,29.4,28.3,00.0,38.1,31.3,08.7,0000.0,0003.86,0012.33,0001.97
2022-05-20 01:45:00,,0808.4,5.01,0.00,29.3,27.3,00.0,38.0,31.0,08.8,0000.0,0003.95,0012.88,0002.00
2022-05-20 01:46:00,,0808.4,5.00,0.00,29.2,26.7,00.0,38.0,30.9,08.9,0000.0,0003.98,0012.86,0002.00
2022-05-20 01:47:00,,0808.5,4.99,0.00,29.1,26.7,00.0,38.0,30.8,08.9,0000.0,0004.00,0012.51,0001.99
2022-05-20 01:48:00,,0808.6,5.01,0.00,29.1,26.8,00.0,38.0,30.8,08.9,0000.0,0003.93,0011.90,0001.97
2022-05-20 01:49:00,,0808.9,4.99,0.00,29.1,27.0,00.0,37.9,30.8,09.0,0000.0,0003.87,0011.60,0001.96
2022-05-20 01:50:00,,0809.0,5.00,0.00,29.1,27.2,00.0,37.9,30.9,09.2,0000.0,0003.84,0011.46,0001.97
2022-05-20 01:51:00,,0809.1,5.00,0.00,29.1,27.4,00.0,37.9,30.9,09.0,0000.0,0003.84,0011.20,0001.97
2022-05-20 01:52:00,,0809.1,5.01,0.00,29.1,27.6,00.0,37.9,31.0,09.0,0000.0,0003.85,0012.44,0001.98
2022-05-20 01:53:00,,0809.1,5.01,0.00,29.1,27.8,00.0,38.0,31.1,11.1,0000.0,0004.05,0014.56,0001.99
2022-05-20 01:54:00,,0809.3,5.00,0.00,29.2,28.0,00.0,38.0,31.1,15.6,0000.0,0005.59,0027.64,0002.15
2022-05-20 01:55:00,,0809.5,4.99,0.00,29.2,28.1,00.0,38.0,31.2,16.0,0000.0,0007.30,0041.39,0002.32
2022-05-20 01:56:00,,0809.6,5.00,0.00,29.2,28.2,00.0,38.0,31.2,16.3,0000.0,0008.84,0054.74,0002.48
2022-05-20 01:57:00,,0809.7,5.00,0.00,29.3,28.3,00.0,38.0,31.3,16.4,0000.0,0010.35,0066.02,0002.62
2022-05-20 01:58:00,,0809.6,5.00,0.00,29.3,28.4,00.0,38.1,31.3,16.4,0000.0,0011.59,0079.12,0002.75
2022-05-20 01:59:00,,0809.8,4.99,0.00,29.4,28.5,00.0,38.1,31.3,16.4,0000.0,0012.54,0087.99,0002.84
